Location: Unspecified
(0.0000°N, 0.0000°E)
Time: 12:27:05
(UTC+00:00)

SEEDS - Pass Details

Date: 03 October 2021
Orbit: 585 x 601 km, 97.6° (Epoch: 15 October)

Event Time Altitude Azimuth Distance (km) Brightness Sun altitude
Rises 03:18:46 0° 44° (NE) 2,835 ? -37.5°
Reaches altitude 10° 03:21:51 10° 69° (ENE) 1,935 ? -36.7°
Maximum altitude 03:24:05 14° 102° (ESE) 1,681 ? -36.1°
Drops below altitude 10° 03:26:19 10° 134° (SE) 1,937 ? -35.6°
Sets 03:29:24 0° 159° (SSE) 2,840 ? -34.8°
